Location: Street
(51.1247°N, 2.7429°W)
Time: 23:12:23
(UTC+00:00)

Transit 2A - Visible Passes

Search period start: 25 November 2020 00:00
Search period end: 05 December 2020 00:00
Orbit: 594 x 964 km, 66.7° (Epoch: 25 November)

Date Brightness Start Highest point End Pass type
(mag) Time Alt. Az. Time Alt. Az. Time Alt. Az.
25 Nov 7.1 17:42:36 10° S 17:48:10 34° ESE 17:51:09 22° ENE visible
25 Nov 6.6 19:24:56 10° SW 19:31:13 64° NW 19:31:40 62° NNW visible
25 Nov 8.8 21:10:38 10° WNW 21:12:11 16° WNW 21:12:11 16° WNW visible
26 Nov 7.5 17:09:11 10° SSE 17:14:12 25° ESE 17:18:19 13° ENE visible
26 Nov 6.4 18:50:39 10° SW 18:56:58 81° NW 18:58:50 47° NNE visible
26 Nov 8.3 20:35:49 10° W 20:39:21 24° WNW 20:39:21 24° WNW visible
27 Nov 6.3 18:16:28 10° SSW 18:22:47 80° SE 18:25:55 30° NE visible
27 Nov 7.7 20:01:05 10° W 20:06:26 33° NW 20:06:26 33° NW visible
28 Nov 6.4 17:42:26 10° SSW 17:48:39 62° ESE 17:52:56 19° NE visible
28 Nov 7.3 19:26:25 10° WSW 19:32:13 39° NW 19:33:27 36° N visible
28 Nov 9.0 21:12:53 10° WNW 21:13:56 13° NW 21:13:56 13° NW visible
29 Nov 6.8 17:08:34 10° S 17:14:33 47° ESE 17:19:55 12° NE visible
29 Nov 7.1 18:51:51 10° WSW 18:57:53 48° NW 19:00:24 31° NNE visible
29 Nov 8.5 20:38:02 10° WNW 20:40:53 19° NW 20:40:53 19° NW visible
30 Nov 6.7 18:17:23 10° SW 18:23:36 61° NW 18:27:19 23° NNE visible
30 Nov 8.1 20:03:11 10° WNW 20:07:49 23° NNW 20:07:49 23° NNW visible
01 Dec 6.5 17:43:04 10° SW 17:49:21 77° NW 17:54:12 16° NE visible
01 Dec 7.8 19:28:21 10° W 19:33:27 27° NNW 19:34:40 25° N visible
01 Dec 9.1 21:15:01 10° NW 21:15:10 10° NW 21:15:10 10° NW visible
02 Dec 6.4 17:08:51 10° SSW 17:15:09 84° SE 17:21:02 10° NE visible
02 Dec 7.7 18:53:36 10° W 18:59:01 31° NNW 19:01:31 23° N visible
02 Dec 8.7 20:40:17 10° NW 20:42:00 14° NNW 20:42:00 14° NNW visible
03 Dec 6.5 16:34:47 10° SSW 16:41:00 65° ESE 16:46:50 10° NE visible
03 Dec 7.4 18:18:55 10° WSW 18:24:37 37° NW 18:28:20 18° NNE visible
03 Dec 8.4 20:05:27 10° WNW 20:08:49 18° NNW 20:08:49 18° NNW visible
04 Dec 7.1 17:44:19 10° WSW 17:50:16 46° NW 17:55:07 14° NNE visible
04 Dec 8.1 19:30:36 10° WNW 19:34:52 20° NNW 19:35:36 19° N visible
